Metropolis, IL

12:31 AM CST on February 24, 2017 (GMT -0600)
Metropolis

Weather History for KM30 - February, 2013

Change the Weather History Date:

Monday, February 18, 2013

  Actual Average (KPAH) Record (KPAH)
Temperature  
Mean Temperature 48 °F -  
Max Temperature 59 °F 49 °F 71 °F (1961)
Min Temperature 38 °F 30 °F 0 °F (2015)
Degree Days  
Heating Degree Days 16    
Moisture  
Dew Point 38 °F    
Average Humidity 68    
Maximum Humidity 96    
Minimum Humidity 38    
Precipitation  
Precipitation 0.47 in - - ()
Sea Level Pressure  
Sea Level Pressure 29.88 in    
Wind  
Wind Speed 11 mph (South)    
Max Wind Speed 24 mph    
Max Gust Speed 33 mph    
Visibility 10 miles    
Events Rain , Thunderstorm    
Averages and records for this station are not official NWS values.
T = Trace of Precipitation, MM = Missing Value Source: NWS Daily Summary

Daily Weather History Graph

Daily Weather History Graph

Search for Another Location

Airport or City:

Trip Planner

Search our weather history database for the weather conditions in past years. The results will help you decide how hot, cold, wet, or windy it might be!

Date:

Astronomy

Feb. 18, 2013 Rise Set
Actual Time 6:39 AM CST 5:38 PM CST
Civil Twilight 6:13 AM CST 6:04 PM CST
Nautical Twilight 5:43 AM CST 6:35 PM CST
Astronomical Twilight 5:12 AM CST 7:05 PM CST
Moon 11:27 AM CST (2/18) 1:15 AM CST (2/18)
Length of Visible Light 11h 51m
Length of Day
10h 58m
First Quarter, 58% of the Moon is Illuminated
Feb 18
First Quarter
Feb 25
Full
Mar 4
Last Quarter
Mar 11
New
Mar 19
First Quarter

Hourly Weather History & Observations

Time (CST) Temp. Windchill Dew Point Humidity Pressure Visibility Wind Dir Wind Speed Gust Speed Precip Events Conditions
12:15 AM 38.7 °F 36.3 °F 23.0 °F 53% 30.05 in 10.0 mi SE 3.5 mph - N/A   Clear
12:55 AM 39.6 °F 35.4 °F 23.9 °F 54% 30.04 in 10.0 mi SSE 5.8 mph - N/A   Clear
1:15 AM 39.7 °F 36.5 °F 24.4 °F 54% 30.03 in 10.0 mi SSE 4.6 mph - N/A   Clear
1:35 AM 39.4 °F 36.1 °F 24.8 °F 56% 30.03 in 10.0 mi SSE 4.6 mph - N/A   Clear
1:55 AM 40.1 °F 36.1 °F 25.2 °F 55% 30.02 in 10.0 mi SSE 5.8 mph - N/A   Clear
2:15 AM 40.6 °F 36.7 °F 25.5 °F 55% 30.01 in 10.0 mi South 5.8 mph - N/A   Clear
2:35 AM 41.0 °F 37.1 °F 25.7 °F 55% 30.01 in 10.0 mi SSE 5.8 mph - N/A   Clear
2:55 AM 41.0 °F 37.1 °F 26.4 °F 56% 30.01 in 10.0 mi SSE 5.8 mph - N/A   Clear
3:15 AM 41.5 °F 37.1 °F 26.8 °F 56% 30.00 in 10.0 mi SSE 6.9 mph - N/A   Clear
3:35 AM 42.3 °F 36.8 °F 27.5 °F 56% 30.00 in 10.0 mi South 9.2 mph 17.3 mph N/A   Clear
3:55 AM 42.3 °F 38.6 °F 28.0 °F 57% 30.00 in 10.0 mi South 5.8 mph - N/A   Clear
4:15 AM 43.2 °F 37.9 °F 29.1 °F 58% 30.01 in 10.0 mi South 9.2 mph - N/A   Clear
4:35 AM 43.7 °F 37.7 °F 30.2 °F 59% 30.01 in 10.0 mi South 11.5 mph 18.4 mph N/A   Clear
4:55 AM 44.1 °F 39.0 °F 31.1 °F 60% 30.01 in 10.0 mi South 9.2 mph - N/A   Clear
5:15 AM 44.2 °F 38.8 °F 31.6 °F 61% 30.01 in 10.0 mi South 10.4 mph 17.3 mph N/A   Clear
5:35 AM 43.9 °F 38.8 °F 32.0 °F 63% 30.00 in 10.0 mi South 9.2 mph 16.1 mph N/A   Clear
6:15 AM 43.9 °F 38.3 °F 32.9 °F 65% 30.00 in 10.0 mi South 10.4 mph 16.1 mph N/A   Clear
6:55 AM 44.8 °F 40.4 °F 34.0 °F 66% 30.00 in 10.0 mi South 8.1 mph 17.3 mph N/A   Clear
7:15 AM 45.9 °F 40.0 °F 35.6 °F 67% 30.00 in 10.0 mi South 12.7 mph 18.4 mph N/A   Clear
7:35 AM 46.9 °F - 36.5 °F 67% 30.00 in 10.0 mi South 16.1 mph 23.0 mph N/A   Clear
7:55 AM 47.7 °F - 37.2 °F 67% 30.00 in 10.0 mi South 12.7 mph 20.7 mph N/A   Clear
8:35 AM 49.8 °F - 37.4 °F 62% 30.00 in 10.0 mi South 18.4 mph 24.2 mph N/A   Clear
8:55 AM 51.1 °F - 37.9 °F 61% 30.00 in 10.0 mi South 19.6 mph 31.1 mph N/A   Clear
9:15 AM 51.8 °F - 38.3 °F 60% 29.99 in 10.0 mi South 17.3 mph 28.8 mph N/A   Clear
9:35 AM 52.9 °F - 38.5 °F 58% 29.98 in 10.0 mi South 18.4 mph 31.1 mph N/A   Clear
9:55 AM 53.4 °F - 38.5 °F 57% 29.97 in 10.0 mi South 17.3 mph 28.8 mph N/A   Clear
10:15 AM 54.5 °F - 37.6 °F 53% 29.96 in 10.0 mi South 20.7 mph 32.2 mph N/A   Clear
10:35 AM 55.6 °F - 37.0 °F 50% 29.96 in 10.0 mi South 16.1 mph 27.6 mph N/A   Mostly Cloudy
10:55 AM 55.9 °F - 36.0 °F 47% 29.95 in 10.0 mi South 19.6 mph 27.6 mph N/A   Overcast
11:15 AM 56.7 °F - 36.3 °F 47% 29.94 in 10.0 mi SSW 19.6 mph 26.5 mph N/A   Overcast
11:35 AM 57.7 °F - 35.2 °F 43% 29.93 in 10.0 mi South 24.2 mph 32.2 mph N/A   Overcast
11:55 AM 59.2 °F - 33.4 °F 38% 29.92 in 10.0 mi South 19.6 mph 33.4 mph N/A   Overcast
12:15 PM 59.0 °F - 34.3 °F 40% 29.90 in 10.0 mi South 20.7 mph 28.8 mph N/A   Overcast
12:35 PM 58.3 °F - 34.9 °F 41% 29.88 in 10.0 mi South 20.7 mph 31.1 mph N/A   Overcast
12:55 PM 58.8 °F - 35.4 °F 42% 29.86 in 10.0 mi South 16.1 mph 32.2 mph N/A   Overcast
1:15 PM 58.1 °F - 33.3 °F 39% 29.86 in 10.0 mi South 19.6 mph 28.8 mph N/A   Overcast
1:35 PM 57.2 °F - 33.6 °F 41% 29.86 in 10.0 mi SSW 16.1 mph 25.3 mph N/A Rain Light Rain
1:55 PM 54.9 °F - 39.7 °F 57% 29.85 in 10.0 mi SSW 18.4 mph 29.9 mph N/A Rain Light Rain
2:15 PM 54.1 °F - 42.4 °F 65% 29.85 in 10.0 mi South 10.4 mph 24.2 mph N/A Rain Rain
2:35 PM 52.9 °F - 44.1 °F 72% 29.82 in 10.0 mi South 12.7 mph 28.8 mph 0.02 in Rain Rain
2:55 PM 52.5 °F - 44.1 °F 73% 29.81 in 10.0 mi South 12.7 mph 19.6 mph 0.03 in Rain Light Rain
3:15 PM 52.9 °F - 43.9 °F 71% 29.80 in 10.0 mi South 18.4 mph 31.1 mph 0.01 in Rain Light Rain
3:35 PM 51.1 °F - 45.0 °F 80% 29.79 in 10.0 mi SSE 16.1 mph 21.9 mph 0.03 in Rain , Thunderstorm Rain
3:55 PM 50.5 °F - 45.5 °F 83% 29.78 in 10.0 mi SSE 15.0 mph 23.0 mph 0.05 in Rain Light Rain
4:15 PM 50.9 °F - 45.7 °F 82% 29.76 in 10.0 mi SSE 15.0 mph 26.5 mph 0.01 in Rain , Thunderstorm Light Thunderstorms and Rain
4:35 PM 50.7 °F - 46.0 °F 84% 29.75 in 10.0 mi SSE 11.5 mph 20.7 mph 0.02 in Rain , Thunderstorm Rain
4:55 PM 50.5 °F - 45.9 °F 84% 29.73 in 10.0 mi SSE 15.0 mph 23.0 mph 0.02 in Rain Light Rain
5:15 PM 50.5 °F - 45.5 °F 83% 29.73 in 10.0 mi South 13.8 mph 21.9 mph 0.01 in Rain Light Rain
5:35 PM 50.4 °F - 45.9 °F 85% 29.73 in 10.0 mi SSE 12.7 mph 19.6 mph 0.02 in Rain , Thunderstorm Light Thunderstorms and Rain
5:55 PM 50.4 °F - 46.0 °F 85% 29.73 in 10.0 mi South 13.8 mph 18.4 mph 0.03 in Rain Light Rain
6:15 PM 50.2 °F - 46.8 °F 88% 29.73 in 10.0 mi South 10.4 mph 18.4 mph 0.02 in Rain Rain
6:55 PM 50.4 °F - 47.7 °F 90% 29.69 in 10.0 mi SSE 16.1 mph 26.5 mph 0.07 in Rain Light Rain
7:15 PM 50.7 °F - 47.5 °F 89% 29.69 in 7.0 mi South 18.4 mph 27.6 mph 0.02 in Rain Rain
7:35 PM 50.4 °F - 48.2 °F 92% 29.69 in 10.0 mi South 17.3 mph 29.9 mph 0.08 in Rain Light Rain
7:55 PM 50.4 °F - 48.7 °F 94% 29.78 in 4.0 mi SSW 20.7 mph 32.2 mph 0.17 in Rain , Thunderstorm Heavy Thunderstorms and Rain
8:15 PM 50.0 °F - 48.0 °F 93% 29.76 in 7.0 mi SSW 15.0 mph 24.2 mph 0.04 in Rain Rain
8:35 PM 48.0 °F - 46.8 °F 95% 29.72 in 10.0 mi South 12.7 mph 17.3 mph 0.08 in Rain Light Rain
8:55 PM 48.2 °F - 46.6 °F 94% 29.72 in 10.0 mi South 9.2 mph - 0.08 in   Overcast
9:15 PM 49.1 °F - 47.3 °F 93% 29.73 in 10.0 mi South 5.8 mph - N/A   Overcast
9:35 PM 49.6 °F - 48.6 °F 96% 29.73 in 10.0 mi South 9.2 mph 16.1 mph N/A   Overcast
9:55 PM 50.4 °F - 48.7 °F 94% 29.74 in 10.0 mi WSW 9.2 mph 18.4 mph N/A   Overcast
10:15 PM 50.9 °F - 48.9 °F 93% 29.75 in 10.0 mi SW 16.1 mph 21.9 mph N/A   Drizzle
10:35 PM 50.4 °F - 49.3 °F 96% 29.78 in 5.0 mi West 11.5 mph 23.0 mph 0.01 in   Heavy Drizzle
10:55 PM 44.6 °F 38.1 °F 42.8 °F 93% 29.82 in 7.0 mi NW 13.8 mph 25.3 mph 0.02 in Rain Rain
11:15 PM 43.7 °F 36.9 °F 41.2 °F 91% 29.84 in 10.0 mi NW 13.8 mph 24.2 mph N/A   Overcast
11:35 PM 42.8 °F 34.3 °F 37.6 °F 82% 29.86 in 10.0 mi WNW 19.6 mph 26.5 mph N/A   Overcast
11:55 PM 42.4 °F 35.3 °F 36.7 °F 80% 29.87 in 10.0 mi NW 13.8 mph 21.9 mph N/A   Overcast